Location: Coed Ely
(51.5661°N, 3.4150°W)
Time: 23:45:25
(UTC+00:00)

YAOGAN 1 - Pass Details

Date: 28 January 2021
Orbit: 618 x 620 km, 97.9° (Epoch: 01 March)

Event Time Altitude Azimuth Distance (km) Brightness Sun altitude
Rises 17:35:38 0° 127° (SE) 2,892 5.7 -6.4°
Reaches altitude 10° 17:38:09 10° 113° (ESE) 1,990 4.7 -6.8°
Maximum altitude 17:41:33 23° 61° (ENE) 1,332 3.7 -7.3°
Drops below altitude 10° 17:44:58 10° 9° (N) 2,001 4.9 -7.8°
Sets 17:47:30 0° 356° (N) 2,912 5.9 -8.1°
